www.pogodaiklimat.ru

Погода и климат >> Архив погоды >> Россия >> Ленинградская область >> Шлиссельбург


ПОГОДА в Шлиссельбурге

  • Прогноз погоды в Шлиссельбурге
  • Монитор погоды в Шлиссельбурге
  • Климат города

АРХИВ ПОГОДЫ в Шлиссельбурге

Время (UTC), дата Ветер
(напр.,м/с)
 
Видим.   Явления Облачность Т
(С)
Тd
(С)
f
(%)
Тe
(С)
Тes
(С)
Комфортность P
(гПа)
Po
(гПа)
Тmin
(С)
Tmax
(С)
R
(мм)
R24
(мм)
S
(см)
15 14.11 ЮЗ 1 4000 м слабая морось 10/10 570 м
[Sc]
+4.9 +4.7 99 +3 +3 1021.0 1019.0 0.3
18 14.11 штиль 0 4000 м слабая морось 10/10 330 м
[St]
+4.6 +4.4 99 +3 +3 1022.6 1020.6 +5.9 0.3
21 14.11 ЮЗ 1 10 км в посл. час морось 10/10 700 м
[Sc]
+4.5 +4.3 99 +3 +3 1024.2 1022.2
00 15.11 штиль 0 10 км {морось} 10/10 700 м
[Sc]
+4.2 +4.2 100 +3 +3 1025.7 1023.7
03 15.11 ЮВ 1 10 км слабая морось 10/10 420 м
[St]
+4.2 +4.2 100 +3 +3 1027.6 1025.6 +3.8 0.0
06 15.11 Ю 1 4000 м дымка {морось} 10/10 700 м
[Sc]
+4.4 +4.2 99 +3 +3 1029.3 1027.3 +3.8 0.3
09 15.11 Ю 2 10 км 10/10 960 м
[Sc]
+4.8 +4.3 97 +2 +2 1031.0 1029.0
12 15.11 Ю 2 20 км 10/10 300 м
[St]
+5.4 +4.7 95 +3 +3 1032.4 1030.4
15 15.11 Ю 2 20 км 10/10 660 м
[Sc]
+5.2 +4.5 95 +2 +2 1033.4 1031.4 0.3
18 15.11 Ю 2 10 км 10/10 330 м
[St]
+5.1 +4.4 95 +2 +2 1034.3 1032.3 +5.6
21 15.11 Ю 2 10 км 10/10 840 м
[Sc]
+5.0 +4.5 97 +2 +2 1035.2 1033.2
00 16.11 Ю 3 10 км 10/10 870 м
[Sc]
+4.9 +4.4 97 +1 +1 1035.9 1033.9
03 16.11 ЮЗ 3 10 км 10/10 1020 м
[Sc]
+5.5 +4.6 94 +2 +2 1036.2 1034.2 +4.7
06 16.11 ЮЗ 4 20 км 8/3 600 м
[Sc Ac trans]
+5.7 +3.6 86 +2 +2 1036.6 1034.6 +4.7
09 16.11 Ю 4 20 км 10/10 750 м
[Sc]
+5.6 +3.5 86 +2 +2 1037.9 1035.9
12 16.11 ЮЗ 3 20 км 10/10 570 м
[Sc]
+6.3 +3.7 83 +3 +3 1037.5 1035.5
15 16.11 ЮЗ 3 10 км {морось} 10/10 500 м
[Sc]
+6.1 +3.2 82 +3 +3 1037.2 1035.2 0.0
18 16.11 ЮЗ 3 10 км {морось} 10/10 630 м
[Sc]
+6.6 +4.3 85 +4 +4 1036.4 1034.4 +7.0 0.0
21 16.11 ЮЗ 4 10 км {морось} 10/10 600 м
[Sc]
+6.2 +3.1 81 +2 +2 1035.6 1033.6
00 17.11 ЮЗ 4
{10}
10 км {морось} 10/10 720 м
[Sc]
+6.4 +3.3 81 +3 +3 1034.4 1032.4
03 17.11 З 4
{11}
10 км 10/10 720 м
[Sc]
+7.2 +5.6 90 +4 +4 1032.8 1030.8 +6.1 0.0
06 17.11 З 4
{12}
20 км 10/10 570 м
[Sc]
+7.6 +4.4 80 +4 +4 1030.7 1028.7 +6.2 0.0
09 17.11 З 4-11
{11}
20 км 9/9 540 м
[Sc]
+8.3 +7.8 97 +5 +5 1029.1 1027.1
12 17.11 З 3
{11}
20 км 9/9 900 м
[Sc]
+7.4 +2.9 73 +5 +5 1027.9 1025.9
15 17.11 З 2 20 км 10/10 720 м
[Sc]
+7.0 +3.2 77 +5 +5 1025.3 1023.3
18 17.11 З 2 20 км 3/0
[Ac trans]
+5.9 +3.0 82 +4 +4 1023.2 1021.2 +8.4
21 17.11 СЗ 2 20 км 10/5 600 м
[Sc Ac und]
+5.8 +3.2 83 +3 +3 1021.5 1019.5
00 18.11 С 2 10 км слабый дождь 10/10 570 м
[Sc]
+5.1 +4.2 94 +2 +2 1021.1 1019.1
03 18.11 С 4 10 км слабый дождь 10/10 600 м
[Sc]
+5.4 +4.2 92 +1 +1 1022.3 1020.3 +4.5 0.8
06 18.11 С 2 10 км слабый дождь 10/10 570 м
[Sc]
+4.7 +4.7 100 +2 +2 1021.1 1019.1
09 18.11 СВ 6-12
{14}
20 км 10/8 1050 м
[Sc Ac und]
+4.8 +0.1 72 -0 -0 1027.5 1025.5
12 18.11 С 5-13
{15}
20 км 10/5 1000 м
[Sc Ac und]
+4.2 0.0 74 -1 -1 1030.0 1028.0
15 18.11 СВ 4-10
{13}
20 км 10/5 600 м
[Sc Ac und]
+4.2 0.0 74 0 0 1031.8 1029.8 0.6
18 18.11 СВ 3
{11}
20 км 10/5 600 м
[Sc Ac und]
+3.4 -0.1 78 -0 -0 1033.7 1031.7 +5.5
21 18.11 СВ 2 20 км 10/0
[Ac und]
+2.2 -0.3 84 -1 -1 1035.5 1033.5
00 19.11 СВ 2 20 км {ливн. осадки} 9/8 540 м
[Sc Ac trans]
+1.4 -0.8 85 -2 -2 1036.3 1034.2
03 19.11 В 2 20 км 9/0
[Ac trans]
+1.0 -1.3 85 -2 -2 1037.1 1035.0 +1.0 0.1
06 19.11 СВ 2 20 км {снег} 10/10 600 м
[Sc]
+0.9 -2.3 79 -2 -2 1038.1 1036.0 +0.6 0.1 0
09 19.11 В 2 20 км 10/10 660 м
[Sc]
+0.4 -2.1 83 -3 -3 1039.0 1036.9
12 19.11 В 1 20 км 10/10 720 м
[Sc]
+0.1 -1.6 88 -2 -2 1038.6 1036.5
15 19.11 С 1 20 км 10/10 800 м
[Sc]
+0.4 -0.4 94 -2 -2 1038.4 1036.3 0.0
18 19.11 ЮЗ 1 20 км 10/10 800 м
[Sc]
-0.2 -0.5 98 -2 -2 1037.5 1035.4 +0.9
21 19.11 З 1 20 км 10/10 700 м
[Sc]
-0.7 -1.1 97 -3 -3 1036.4 1034.3
00 20.11 штиль 0 20 км 10/10 660 м
[Sc]
-0.8 -1.5 95 -2 -2 1035.6 1033.5
03 20.11 ЮЗ 1 20 км 3/0
[Ac trans]
-2.1 -2.7 96 -4 -4 1033.5 1031.4 -2.2
06 20.11 ЮЗ 2 20 км 9/8 500 м
[Sc Ac trans]
-1.5 -2.0 96 -6 -6 1031.0 1028.9 -2.2
09 20.11 ЮЗ 2 20 км 8/8 480 м
[Cu Sc]
0.0 -0.6 96 -4 -4 1028.6 1026.5
12 20.11 З 4 20 км 8/4 1000 м
[Cu med, cong Ci]
+1.9 -0.3 85 -3 -3 1026.2 1024.2
15 20.11 З 1 20 км 10/10 540 м
[Sc]
+1.1 -1.5 83 -1 -1 1026.3 1024.3
18 20.11 З 1 20 км 10/10 720 м
[Sc]
-1.1 -2.1 93 -3 -3 1027.6 1025.5 +2.5
21 20.11 СЗ 2 20 км 4/4 600 м
[Sc]
-1.1 -2.4 91 -5 -5 1028.0 1025.9
00 21.11 СЗ 1 20 км {ливн. осадки} 8/8 1020 м
[Cu Sc]
-0.3 -1.2 94 -2 -2 1029.1 1027.0
03 21.11 СЗ 1 20 км 6/6 1050 м
[Sc]
-1.0 -2.0 93 -3 -3 1029.9 1027.8 -1.3 0.2
06 21.11 СЗ 1 20 км 5/5 600 м
[Cb cap]
-1.5 -2.0 96 -4 -4 1030.4 1028.0 -1.5 0.2 1
09 21.11 СЗ 2 20 км 9/9 1140 м
[Sc]
-0.4 -2.8 84 -4 -4 1029.9 1027.8
12 21.11 З 1 20 км 9/9 1020 м
[Sc]
+0.3 -5.6 65 -1 -1 1029.4 1027.3

 

Местоположение метеостанции Шлиссельбург (Ленинградская область, Россия): широта 59.93 долгота 31.00 высота над уровнем моря 16 м.

В архиве по умолчанию представлена погода в Шлиссельбурге за последнюю неделю. Архивные данные за месяц целиком и за предыдущие месяцы, начиная с января 2011 года, Вы можете получить, выбрав интересующий диапазон дат из раскрывающегося списка и нажав кнопку "Ввод!".


*Определитесь, кто Вы:
робот инопланетянин человек

Внимание! Время в таблицах - всемирное. Для получения местного времени необходимо прибавить поправку, которая в Шлиссельбурге равна 3 ч.

Смотрите также архив погоды в соседних городах и на ближайших метеорологических станциях:

Погода в Воейково (город Санкт-Петербург, Россия) (17 км)
Погода в Санкт-Петербурге (город Санкт-Петербург, Россия) (39 км)
Погода в Лисьем Носу (город Санкт-Петербург, Россия) (58 км)
Погода в Любани (Ленинградская область, Россия) (66 км)
Погода в Ломоносове (город Санкт-Петербург, Россия) (68 км)
Погода в Кронштадте (город Санкт-Петербург, Россия) (69 км)
Погода в Новой Ладоге (Ленинградская область, Россия) (76 км)
Погода в Сосново (Ленинградская область, Россия) (79 км)
Погода в Киришах (Ленинградская область, Россия) (79 км)
Погода в Белогорке (Ленинградская область, Россия) (81 км)

Пояснения к столбцам:

Ветер - указаны скорость ветра в м/с - средняя за 10 мин, порывы в срок и между сроками (в фигурных скобках) и направление, откуда дует ветер: С - северный, СВ - северо-восточный, В - восточный, ЮВ - юго-восточный, Ю - южный, ЮЗ - юго-западный, З - западный, СЗ - северо-западный.
Видимость - горизонтальная дальность видимости в метрах или километрах. При видимости от 1 до 10 км при отсутствии осадков обычно наблюдается дымка, при ухудшении видимости до 1 км и менее - туман. В сухую погоду видимость может ухудшаться дымом, пылью или мглою.
Явления - указаны атмосферные явления, наблюдавшиеся в срок или в последний час перед сроком; фигурными скобками обозначены явления, наблюдавшиеся между сроками (за 1-3 часа до срока); квадратными скобками обозначены град или гололедные отложения с указанием их диаметра в мм.
Облачность - указаны через наклонную черту общая и нижняя облачность в баллах и высота нижней границы облаков в метрах; квадратными скобками обозначены формы облаков: Ci - перистые, Cs - перисто-слоистые, Cc - перисто-кучевые, Ac - высококучевые, As - высокослоистые, Sc - слоисто-кучевые, Ns - слоисто-дождевые, Cu - кучевые, Cb - кучево-дождевые. Подробнее классификацию облаков см. в Атласе облаков (PDF).
T - Температура воздуха - температура, измеренная на высоте 2 м над землей.
Td - Температура точки росы - температура, при понижении до которой содержащийся в воздухе водяной пар достигнет насыщения.
f - Относительная влажность воздуха - влажноcть воздуха, измеренная на высоте 2 м над землей.
Te - Эффективная температура - температура, которую ощущает одетый по сезону человек в тени. Характеристика душности погоды. При расчете учитывается влияние влажности воздуха и скорости ветра на теплоощущения человека.
Tes - Эффективная температура на солнце - температура, которую ощущает человек, с поправкой на солнечный нагрев. Характеристика знойности погоды. Зависит от высоты солнца над горизонтом, облачности и скорости ветра. Ночью, в пасмурную погоду, а также при ветре 12 м/с и более поправка равна нулю.
P - Атмосферное давление - приведенное к уровню моря атмосферное давление.
Po - Атмосферное давление - измеренное на уровне метеостанции атмосферное давление.
Tmin - Минимальная температура - минимум температуры воздуха на высоте 2 м над землей.
Tmax - Максимальная температура - максимум температуры воздуха на высоте 2 м над землей.
R - Количество осадков - Количество выпавших осадков за период времени, мм. При наведении курсора мыши на число - период времени, за который выпало указанное количество осадков.
R24 - Количество осадков - Количество выпавших осадков за 24 часа, мм.
S - Снежный покров - Высота снежного покрова, см. При наведении курсора мыши на число - состояние снежного покрова и степень покрытия местности в баллах.